Regional Weather Roundup
Issued by NWS Charleston, WV

Home | Current Version | Previous Version | Text Only | Print | Product List | Glossary Off
Versions: 1 2 3 4 5 6 7 8 9 10 11 12 13 14 15 16 17 18 19 20 21 22 23 24 25 26 27 28 29 30 31 32 33 34 35 36 37 38 39 40 41 42 43 44 45 46 47 48

000
ASUS41 KRLX 190610
RWRRLX
West Virginia Regional Weather Roundup
National Weather Service Charleston WV
100 AM EST THU JAN 19 2017

Note: "fair" indicates few or no clouds below 12,000 feet with no
significant weather and/or obstructions to visibility.

WVZ003-190700-
Northern Panhandle of West Virginia

CITY           SKY/WX    TMP DP  RH WIND       PRES   REMARKS
WHEELING       CLOUDY    37  34  89 SW7       30.09F
$$

WVZ009-190700-
Northwest West Virginia

CITY           SKY/WX    TMP DP  RH WIND       PRES   REMARKS
PARKERSBURG    CLOUDY    40  34  79 VRB6      30.15R
$$

WVZ006-190700-
Western West Virginia

CITY           SKY/WX    TMP DP  RH WIND       PRES   REMARKS
HUNTINGTON     CLOUDY    43  37  79 SW3       30.12F
$$

WVZ015-190700-
West Central West Virginia

CITY           SKY/WX    TMP DP  RH WIND       PRES   REMARKS
CHARLESTON     CLOUDY    43  37  79 CALM      30.13S
$$

WVZ022-031-190700-
North Central West Virginia

CITY           SKY/WX    TMP DP  RH WIND       PRES   REMARKS
CLARKSBURG     CLOUDY    40  35  83 W8        30.12R
MORGANTOWN     CLOUDY    40  34  79 CALM      30.11S
$$

WVZ025-035-042-045-190700-
Southern West Virginia

CITY           SKY/WX    TMP DP  RH WIND       PRES   REMARKS
BECKLEY        CLOUDY    37  35  92 CALM      30.09F
LOGAN          CLOUDY    41  37  87 CALM      30.10F
BLUEFIELD      CLOUDY    34  32  92 CALM      30.07F
LEWISBURG      CLOUDY    37  35  91 W3        30.10S
$$

WVZ047-190700-
Northern Mountains of West Virginia

CITY           SKY/WX    TMP DP  RH WIND       PRES   REMARKS
ELKINS         CLOUDY    39  34  82 W6        30.09F
$$

WVZ052-190700-
Eastern Panhandle of West Virginia

CITY           SKY/WX    TMP DP  RH WIND       PRES   REMARKS
MARTINSBURG    CLOUDY    44  34  67 NW5       30.08S
PETERSBURG     CLOUDY    33  32  97 CALM      30.09S
$$




USA.gov is the U.S. government's official web portal to all federal, state and local government web resources and services.